CW7668 Weather Reports


time (UTC)temp
F
wind
direction
speed
knots
gust
knots
rain 1hr
in
rain 24hr
in
rain mn
in
humidity
%
barometer
mb
20260506193104 84 166 0.9 7.0 0.00 0.00 0.00 86 1008.9
20260506192606 84 143 1.7 7.0 0.00 0.00 0.00 86 1008.9
20260506192105 84 142 0.9 6.1 0.00 0.00 0.00 86 1009.0
20260506191605 84 105 0.9 4.3 0.00 0.00 0.00 86 1009.0
20260506191106 84 144 0.9 4.3 0.00 0.00 0.00 86 1009.1
20260506190604 84 142 0.9 5.2 0.00 0.00 0.00 88 1009.1
20260506190335 83 115 0.9 6.1 0.00 0.00 0.00 87 1009.3
20260506185601 83 143 0.0 6.1 0.00 0.00 0.00 87 1009.4
20260506185101 84 120 0.0 2.6 0.00 0.00 0.00 87 1009.3
20260506184554 84 70 0.0 1.7 0.00 0.00 0.00 88 1009.3
20260506184049 84 74 0.0 1.7 0.00 0.00 0.00 88 1009.4
20260506183550 83 74 0.9 2.6 0.00 0.00 0.00 88 1009.4
20260506183046 83 73 0.9 3.5 0.00 0.00 0.00 89 1009.5
20260506182546 83 96 0.9 3.5 0.00 0.00 0.00 89 1009.6
20260506182046 83 98 0.0 3.5 0.00 0.00 0.00 90 1009.7
20260506181548 82 126 0.0 1.7 0.00 0.00 0.00 91 1009.8
20260506181046 82 110 0.0 1.7 0.00 0.00 0.00 91 1009.9
20260506180545 81 108 0.0 1.7 0.00 0.00 0.00 91 1009.9
20260506180314 81 134 0.0 1.7 0.00 0.00 0.00 91 1010.0
20260506175544 81 136 0.0 1.7 0.00 0.00 0.00 92 1010.3
20260506175043 81 137 0.0 1.7 0.00 0.00 0.00 91 1010.4
20260506174542 81 140 0.0 0.9 0.00 0.00 0.00 92 1010.4
20260506174042 81 140 0.0 0.9 0.00 0.00 0.00 92 1010.5
20260506173540 81 141 0.0 1.7 0.00 0.00 0.00 92 1010.5
20260506173040 81 141 0.0 1.7 0.00 0.00 0.00 93 1010.6
20260506172538 81 140 0.0 0.9 0.00 0.00 0.00 93 1010.8
20260506172039 80 141 0.0 1.7 0.00 0.00 0.00 94 1010.8
20260506171537 80 144 0.9 3.5 0.00 0.00 0.00 94 1010.7
20260506171039 80 140 0.9 3.5 0.00 0.00 0.00 94 1010.8
20260506171035 80 143 0.9 3.5 0.00 0.00 0.00 93 1010.8
20260506170029 80 144 0.9 3.5 0.00 0.00 0.00 94 1010.8
20260506165522 80 113 0.0 3.5 0.00 0.00 0.00 95 1010.8
20260506165017 80 153 0.0 2.6 0.00 0.00 0.00 95 1010.8
20260506164511 79 153 0.9 3.5 0.00 0.00 0.00 94 1010.9
20260506164241 79 155 0.9 4.3 0.00 0.00 0.00 93 1010.9
20260506035720 77 130 1.7 7.0 0.00 0.00 0.00 93 1009.0
20260506035214 77 132 1.7 7.0 0.00 0.00 0.00 93 1009.0
20260506034708 78 148 0.9 6.1 0.00 0.00 0.00 93 1009.0
20260506034202 78 88 0.9 4.3 0.00 0.00 0.00 93 1009.0
20260506033656 78 146 0.9 4.3 0.00 0.00 0.00 93 1009.1
20260506033150 78 132 1.7 8.7 0.00 0.00 0.00 93 1008.8
20260506032644 78 152 1.7 8.7 0.00 0.00 0.00 93 1008.6
20260506032138 78 130 1.7 6.1 0.00 0.00 0.00 93 1008.5
20260506031631 78 148 1.7 7.8 0.00 0.00 0.00 93 1008.4
20260506031126 78 148 1.7 7.8 0.00 0.00 0.00 93 1008.4
20260506030619 78 145 2.6 8.7 0.00 0.00 0.00 93 1008.4
20260506030114 78 146 2.6 8.7 0.00 0.00 0.00 92 1008.2
20260506025607 78 148 1.7 7.0 0.00 0.00 0.00 92 1008.3
20260506025102 78 115 1.7 7.0 0.00 0.00 0.00 92 1008.2
20260506024555 78 167 1.7 8.7 0.00 0.00 0.00 92 1008.2
20260506024322 78 177 1.7 8.7 0.00 0.00 0.00 92 1008.2
20260506023544 78 191 2.6 8.7 0.00 0.00 0.00 91 1008.0
20260506023037 78 148 2.6 8.7 0.00 0.00 0.00 91 1008.1
20260506022531 78 138 2.6 9.6 0.00 0.00 0.00 91 1007.9
20260506022025 78 140 1.7 9.6 0.00 0.00 0.00 91 1007.9
20260506021524 78 115 1.7 8.7 0.00 0.00 0.00 91 1007.8
20260506021024 78 140 1.7 8.7 0.00 0.00 0.00 91 1007.8
20260506020524 78 146 1.7 6.1 0.00 0.00 0.00 90 1007.7
20260506020254 79 94 0.9 6.1 0.00 0.00 0.00 90 1007.7
20260506015521 79 148 1.7 6.1 0.00 0.00 0.00 90 1007.7
20260506015020 79 154 1.7 6.1 0.00 0.00 0.00 90 1007.7
20260506014520 79 161 1.7 7.0 0.00 0.00 0.00 90 1007.5
20260506014019 79 142 1.7 7.0 0.00 0.00 0.00 89 1007.4
20260506013520 79 173 1.7 6.1 0.00 0.00 0.00 89 1007.4
20260506013018 79 142 0.9 6.1 0.00 0.00 0.00 89 1007.4
20260506012519 79 165 1.7 7.0 0.00 0.00 0.00 89 1007.5
20260506012018 79 147 1.7 7.0 0.00 0.00 0.00 89 1007.6
20260506011516 79 159 2.6 10.4 0.00 0.00 0.00 88 1007.1
20260506011013 79 130 2.6 10.4 0.00 0.00 0.00 88 1007.0
20260506010745 79 156 1.7 7.8 0.00 0.00 0.00 88 1007.0
20260506010014 79 186 2.6 7.8 0.00 0.00 0.00 88 1007.0
20260506005745 79 144 2.6 9.6 0.00 0.00 0.00 88 1006.9
20260506005008 80 159 3.5 9.6 0.00 0.00 0.00 87 1006.9
20260506004502 80 150 1.7 7.8 0.00 0.00 0.00 87 1006.9
20260506003956 80 141 0.9 7.0 0.00 0.00 0.00 87 1006.9
20260506003453 80 148 1.7 7.0 0.00 0.00 0.00 87 1006.9
20260506002953 80 136 0.9 7.0 0.00 0.00 0.00 87 1006.8
20260506002452 80 126 1.7 7.8 0.00 0.00 0.00 87 1006.7
20260506002226 80 155 2.6 9.6 0.00 0.00 0.00 87 1006.7
20260506001453 80 140 2.6 9.6 0.00 0.00 0.00 86 1006.7
20260506000953 80 179 2.6 9.6 0.00 0.00 0.00 86 1006.8
20260506000453 80 161 2.6 10.4 0.00 0.00 0.00 86 1006.8
20260505235954 80 134 2.6 10.4 0.00 0.00 0.00 86 1006.9
20260505235726 80 153 2.6 10.4 0.00 0.00 0.00 87 1006.8
20260505234954 80 138 1.7 8.7 0.00 0.00 0.00 86 1006.7
20260505234455 81 199 2.6 10.4 0.00 0.00 0.00 86 1006.8
20260505233950 81 133 2.6 10.4 0.00 0.00 0.00 86 1006.7
20260505233450 81 134 2.6 11.3 0.00 0.00 0.00 86 1006.7
20260505232950 81 148 2.6 11.3 0.00 0.00 0.00 85 1006.7
20260505232449 81 160 2.6 9.6 0.00 0.00 0.00 85 1006.7
20260505231948 81 171 2.6 8.7 0.00 0.00 0.00 84 1006.8
20260505231449 82 191 1.7 7.8 0.00 0.00 0.00 85 1006.7
20260505230948 82 154 1.7 7.8 0.00 0.00 0.00 85 1006.6
20260505230449 82 179 2.6 9.6 0.00 0.00 0.00 86 1006.6
20260505225950 82 178 2.6 9.6 0.00 0.00 0.00 85 1006.7
20260505225445 82 155 1.7 7.8 0.00 0.00 0.00 85 1006.8
20260505224945 83 132 1.7 7.8 0.00 0.00 0.00 84 1006.7
20260505224718 83 150 1.7 8.7 0.00 0.00 0.00 84 1006.7
20260505223944 83 161 2.6 10.4 0.00 0.00 0.00 84 1006.7
20260505223445 83 136 2.6 10.4 0.00 0.00 0.00 82 1006.8
20260505222946 83 194 1.7 7.0 0.00 0.00 0.00 82 1006.7
20260505222444 83 148 1.7 7.0 0.00 0.00 0.00 82 1006.7
20260505221945 83 213 2.6 9.6 0.00 0.00 0.00 82 1006.9
20260505221446 83 159 2.6 11.3 0.00 0.00 0.00 82 1006.9
20260505220942 83 132 3.5 11.3 0.00 0.00 0.00 83 1006.9
20260505220442 83 219 2.6 13.0 0.00 0.00 0.00 83 1006.8
20260505215942 83 130 1.7 13.0 0.00 0.00 0.00 82 1006.9
20260505215440 83 215 1.7 6.1 0.00 0.00 0.00 83 1006.9
20260505214940 83 163 2.6 10.4 0.00 0.00 0.00 83 1007.1
20260505214440 83 150 2.6 10.4 0.00 0.00 0.00 83 1007.1
20260505213940 83 159 2.6 8.7 0.00 0.00 0.00 83 1007.2
20260505213713 83 163 2.6 8.7 0.00 0.00 0.00 82 1007.1
20260505212942 83 148 2.6 12.2 0.00 0.00 0.00 82 1007.2
20260505212713 83 194 2.6 12.2 0.00 0.00 0.00 83 1007.2
20260505211940 83 140 1.7 10.4 0.00 0.00 0.00 82 1007.3
20260505211440 83 197 1.7 10.4 0.00 0.00 0.00 83 1007.3
20260505210940 83 171 1.7 8.7 0.00 0.00 0.00 83 1007.4
20260505210712 83 197 2.6 8.7 0.00 0.00 0.00 83 1007.5
20260505210210 83 159 2.6 10.4 0.00 0.00 0.00 83 1007.5
20260505205438 83 168 2.6 10.4 0.00 0.00 0.00 83 1007.6
20260505204938 83 162 1.7 10.4 0.00 0.00 0.00 83 1007.6
20260505204437 83 180 1.7 7.0 0.00 0.00 0.00 83 1007.7
20260505203937 83 202 1.7 7.0 0.00 0.00 0.00 82 1007.9
20260505203436 83 201 1.7 10.4 0.00 0.00 0.00 82 1007.9
20260505202936 84 178 1.7 10.4 0.00 0.00 0.00 81 1007.8
20260505202438 84 175 1.7 8.7 0.00 0.00 0.00 82 1007.9
20260505202210 84 190 1.7 7.8 0.00 0.00 0.00 82 1008.1
20260505201430 84 211 1.7 7.8 0.00 0.00 0.00 83 1008.0
20260505200923 84 190 1.7 7.8 0.00 0.00 0.00 83 1008.1
20260505200417 84 195 2.6 10.4 0.00 0.00 0.00 83 1008.2
20260505195911 84 179 2.6 10.4 0.00 0.00 0.00 82 1008.3
20260505195636 84 184 1.7 8.7 0.00 0.00 0.00 83 1008.3
20260505194859 83 213 2.6 9.6 0.00 0.00 0.00 84 1008.4
20260505194357 83 187 2.6 9.6 0.00 0.00 0.00 85 1008.6
20260505194352 83 103 2.6 9.6 0.00 0.00 0.00 84 1008.6